"read_dt","SO2 (ppb)","flags","PMT voltage (V)","lamp voltage (V)","lamp intensity (Hz)","internal temp (C)","react chamber temp (C)","sample flow (l/min)","pres (mmHg)","SO2 bkg (ppb)","SO2 coefficient"
2016-10-08 00:00:00,1569E-3,5C000000,-0724,0826,12257,029.0,045.5,0.453,748.5,01.17,0.508
2016-10-08 00:01:00,1673E-3,5C000000,-0724,0826,12174,029.0,045.5,0.453,748.5,01.17,0.508
2016-10-08 00:02:00,1572E-3,5C000000,-0724,0826,12174,029.0,045.5,0.453,748.5,01.17,0.508
2016-10-08 00:03:00,1661E-3,5C000000,-0724,0826,12171,029.0,045.5,0.453,748.5,01.17,0.508
2016-10-08 00:04:00,1573E-3,5C000000,-0724,0827,12261,029.0,045.5,0.453,748.5,01.17,0.508
2016-10-08 00:05:00,1707E-3,5C000000,-0724,0826,12151,028.9,045.5,0.453,748.5,01.17,0.508
2016-10-08 00:06:00,1688E-3,5C000000,-0724,0826,12284,028.9,045.5,0.453,748.5,01.17,0.508
2016-10-08 00:07:00,1787E-3,5C000000,-0724,0825,12204,029.0,045.5,0.453,748.5,01.17,0.508
2016-10-08 00:08:00,2101E-3,5C000000,-0724,0826,12267,029.0,045.5,0.453,748.5,01.17,0.508
2016-10-08 00:09:00,2194E-3,5C000000,-0724,0826,12222,028.9,045.5,0.453,748.5,01.17,0.508
2016-10-08 00:10:00,2060E-3,5C000000,-0724,0827,12408,028.9,045.5,0.453,748.5,01.17,0.508
2016-10-08 00:11:00,1772E-3,5C000000,-0724,0826,12306,028.9,045.5,0.454,748.5,01.17,0.508
2016-10-08 00:12:00,2289E-3,5C000000,-0724,0826,12081,028.9,045.5,0.453,748.5,01.17,0.508
2016-10-08 00:13:00,2561E-3,5C000000,-0724,0827,12213,029.0,045.5,0.453,748.5,01.17,0.508
2016-10-08 00:14:00,2139E-3,5C000000,-0724,0826,12419,028.9,045.5,0.454,748.5,01.17,0.508
2016-10-08 00:15:00,1901E-3,5C000000,-0724,0826,12295,028.9,045.5,0.453,748.5,01.17,0.508
2016-10-08 00:16:00,1925E-3,5C000000,-0724,0826,12320,029.0,045.5,0.453,748.5,01.17,0.508
2016-10-08 00:17:00,2066E-3,5C000000,-0724,0826,12277,029.0,045.5,0.453,748.5,01.17,0.508
2016-10-08 00:18:00,2108E-3,5C000000,-0724,0827,12403,028.9,045.5,0.453,748.5,01.17,0.508
2016-10-08 00:19:00,2155E-3,5C000000,-0724,0825,12170,028.9,045.5,0.454,748.5,01.17,0.508
2016-10-08 00:20:00,2353E-3,5C000000,-0724,0826,12339,028.9,045.5,0.453,748.5,01.17,0.508
2016-10-08 00:21:00,2489E-3,5C000000,-0724,0826,12293,028.9,045.5,0.453,748.5,01.17,0.508
2016-10-08 00:22:00,2192E-3,5C000000,-0724,0827,12183,028.9,045.5,0.453,748.5,01.17,0.508
2016-10-08 00:23:00,2246E-3,5C000000,-0724,0825,12157,028.9,045.5,0.453,748.5,01.17,0.508
2016-10-08 00:24:00,2087E-3,5C000000,-0724,0825,12243,028.9,045.5,0.453,748.5,01.17,0.508
2016-10-08 00:25:00,1986E-3,5C000000,-0724,0826,12271,028.9,045.5,0.453,748.5,01.17,0.508
2016-10-08 00:26:00,2032E-3,5C000000,-0724,0826,12302,028.9,045.5,0.453,748.4,01.17,0.508
2016-10-08 00:27:00,1961E-3,5C000000,-0724,0826,12273,028.9,045.5,0.453,748.4,01.17,0.508
2016-10-08 00:28:00,2011E-3,5C000000,-0724,0826,12237,028.9,045.5,0.453,748.4,01.17,0.508
2016-10-08 00:29:00,2036E-3,5C000000,-0724,0827,12082,029.0,045.5,0.453,748.4,01.17,0.508
2016-10-08 00:30:00,2391E-3,5C000000,-0724,0826,12228,029.0,045.5,0.453,748.4,01.17,0.508
2016-10-08 00:31:00,2598E-3,5C000000,-0724,0826,12173,028.9,045.5,0.453,748.3,01.17,0.508
2016-10-08 00:32:00,2366E-3,5C000000,-0724,0825,12159,028.9,045.5,0.453,748.3,01.17,0.508
2016-10-08 00:33:00,1946E-3,5C000000,-0724,0825,12184,028.9,045.5,0.453,748.3,01.17,0.508
2016-10-08 00:34:00,1737E-3,5C000000,-0724,0826,12241,028.9,045.5,0.454,748.3,01.17,0.508
2016-10-08 00:35:00,1671E-3,5C000000,-0724,0827,12090,029.0,045.5,0.453,748.3,01.17,0.508
2016-10-08 00:36:00,1617E-3,5C000000,-0724,0826,12207,028.9,045.5,0.453,748.3,01.17,0.508
2016-10-08 00:37:00,1670E-3,5C000000,-0724,0827,12103,028.9,045.5,0.453,748.3,01.17,0.508
2016-10-08 00:38:00,1848E-3,5C000000,-0724,0828,12371,028.9,045.5,0.453,748.3,01.17,0.508
2016-10-08 00:39:00,2017E-3,5C000000,-0724,0827,12186,028.9,045.5,0.454,748.4,01.17,0.508
2016-10-08 00:40:00,2342E-3,5C000000,-0724,0827,12334,029.0,045.5,0.453,748.4,01.17,0.508
2016-10-08 00:41:00,2426E-3,5C000000,-0724,0826,12293,028.9,045.5,0.453,748.4,01.17,0.508
2016-10-08 00:42:00,1946E-3,5C000000,-0724,0826,12226,028.9,045.5,0.453,748.4,01.17,0.508
2016-10-08 00:43:00,1789E-3,5C000000,-0724,0827,12244,028.9,045.5,0.453,748.4,01.17,0.508
2016-10-08 00:44:00,1799E-3,5C000000,-0724,0826,12227,028.9,045.5,0.454,748.3,01.17,0.508
2016-10-08 00:45:00,1742E-3,5C000000,-0724,0826,12225,028.9,045.5,0.453,748.4,01.17,0.508
2016-10-08 00:46:00,1792E-3,5C000000,-0724,0826,12075,028.9,045.5,0.453,748.3,01.17,0.508
2016-10-08 00:47:00,1753E-3,5C000000,-0724,0826,12192,028.9,045.5,0.453,748.3,01.17,0.508
2016-10-08 00:48:00,1796E-3,5C000000,-0724,0825,12222,028.9,045.5,0.453,748.3,01.17,0.508
2016-10-08 00:49:00,1685E-3,5C000000,-0724,0825,12242,028.9,045.5,0.454,748.3,01.17,0.508
2016-10-08 00:50:00,1641E-3,5C000000,-0724,0826,12194,028.9,045.5,0.453,748.3,01.17,0.508
2016-10-08 00:51:00,1756E-3,5C000000,-0724,0826,12185,028.9,045.5,0.453,748.3,01.17,0.508
2016-10-08 00:52:00,1712E-3,5C000000,-0724,0826,12332,028.9,045.5,0.453,748.3,01.17,0.508
2016-10-08 00:53:00,1694E-3,5C000000,-0724,0825,12401,028.9,045.5,0.453,748.3,01.17,0.508
2016-10-08 00:54:00,1624E-3,5C000000,-0724,0826,12277,028.9,045.5,0.454,748.3,01.17,0.508
2016-10-08 00:55:00,1742E-3,5C000000,-0724,0826,12078,028.9,045.5,0.453,748.3,01.17,0.508
2016-10-08 00:56:00,1887E-3,5C000000,-0724,0826,12249,028.9,045.5,0.453,748.3,01.17,0.508
2016-10-08 00:57:00,1764E-3,5C000000,-0724,0826,12159,028.9,045.5,0.453,748.3,01.17,0.508
2016-10-08 00:58:00,1694E-3,5C000000,-0724,0826,12395,028.9,045.5,0.453,748.3,01.17,0.508
2016-10-08 00:59:00,1825E-3,5C000000,-0724,0826,12153,028.9,045.5,0.453,748.2,01.17,0.508
2016-10-08 01:00:00,1927E-3,5C000000,-0724,0825,12196,028.9,045.5,0.453,748.3,01.17,0.508
2016-10-08 01:01:00,1886E-3,5C000000,-0724,0826,12187,028.9,045.5,0.453,748.3,01.17,0.508
2016-10-08 01:02:00,1914E-3,5C000000,-0724,0825,12224,028.9,045.5,0.453,748.3,01.17,0.508
2016-10-08 01:03:00,2069E-3,5C000000,-0724,0826,12202,028.9,045.5,0.453,748.2,01.17,0.508
2016-10-08 01:04:00,2226E-3,5C000000,-0724,0828,12243,028.9,045.5,0.453,748.3,01.17,0.508
2016-10-08 01:05:00,2104E-3,5C000000,-0724,0825,12098,028.9,045.5,0.453,748.3,01.17,0.508
2016-10-08 01:06:00,2161E-3,5C000000,-0724,0826,12219,028.9,045.5,0.453,748.2,01.17,0.508
2016-10-08 01:07:00,2130E-3,5C000000,-0724,0827,12095,028.9,045.5,0.453,748.3,01.17,0.508
2016-10-08 01:08:00,2135E-3,5C000000,-0724,0826,12157,028.9,045.5,0.453,748.2,01.17,0.508
2016-10-08 01:09:00,2182E-3,5C000000,-0724,0826,12234,028.9,045.5,0.453,748.2,01.17,0.508
2016-10-08 01:10:00,2453E-3,5C000000,-0724,0827,12226,028.9,045.5,0.453,748.2,01.17,0.508
2016-10-08 01:11:00,2960E-3,5C000000,-0724,0826,12239,028.9,045.5,0.453,748.2,01.17,0.508
2016-10-08 01:12:00,3112E-3,5C000000,-0724,0826,12290,028.9,045.5,0.453,748.2,01.17,0.508
2016-10-08 01:13:00,2544E-3,5C000000,-0724,0826,12130,028.9,045.5,0.454,748.2,01.17,0.508
2016-10-08 01:14:00,2166E-3,5C000000,-0724,0826,12210,028.9,045.5,0.453,748.2,01.17,0.508
2016-10-08 01:15:00,2449E-3,5C000000,-0724,0827,12330,028.9,045.5,0.453,748.2,01.17,0.508
2016-10-08 01:16:00,2385E-3,5C000000,-0724,0826,12120,028.8,045.5,0.453,748.3,01.17,0.508
2016-10-08 01:17:00,2102E-3,5C000000,-0724,0826,12114,028.8,045.5,0.453,748.3,01.17,0.508
2016-10-08 01:18:00,1955E-3,5C000000,-0724,0826,12328,028.8,045.5,0.454,748.2,01.17,0.508
2016-10-08 01:19:00,2321E-3,5C000000,-0724,0827,12237,028.8,045.5,0.453,748.2,01.17,0.508
2016-10-08 01:20:00,2537E-3,5C000000,-0724,0827,12194,028.9,045.5,0.453,748.3,01.17,0.508
2016-10-08 01:21:00,2401E-3,5C000000,-0724,0827,12358,028.8,045.5,0.453,748.2,01.17,0.508
2016-10-08 01:22:00,2258E-3,5C000000,-0724,0826,12174,028.9,045.5,0.453,748.3,01.17,0.508
2016-10-08 01:23:00,2614E-3,5C000000,-0724,0826,12262,028.9,045.5,0.453,748.2,01.17,0.508
2016-10-08 01:24:00,2847E-3,5C000000,-0724,0827,12253,028.8,045.5,0.453,748.2,01.17,0.508
2016-10-08 01:25:00,2599E-3,5C000000,-0724,0826,12239,028.8,045.5,0.454,748.2,01.17,0.508
2016-10-08 01:26:00,2427E-3,5C000000,-0724,0826,12225,028.8,045.5,0.453,748.2,01.17,0.508
2016-10-08 01:27:00,2087E-3,5C000000,-0724,0826,12262,028.8,045.5,0.453,748.3,01.17,0.508
2016-10-08 01:28:00,2039E-3,5C000000,-0724,0825,12153,028.9,045.5,0.453,748.2,01.17,0.508
2016-10-08 01:29:00,2030E-3,5C000000,-0724,0826,12302,028.8,045.5,0.453,748.1,01.17,0.508
2016-10-08 01:30:00,2332E-3,5C000000,-0724,0827,12259,028.8,045.5,0.453,748.2,01.17,0.508
2016-10-08 01:31:00,2261E-3,5C000000,-0724,0826,12210,028.9,045.5,0.453,748.2,01.17,0.508
2016-10-08 01:32:00,2363E-3,5C000000,-0724,0826,12165,028.8,045.5,0.453,748.1,01.17,0.508
2016-10-08 01:33:00,2427E-3,5C000000,-0724,0827,12157,028.8,045.5,0.453,748.2,01.17,0.508
2016-10-08 01:34:00,2295E-3,5C000000,-0724,0826,12389,028.8,045.5,0.453,748.1,01.17,0.508
2016-10-08 01:35:00,2315E-3,5C000000,-0724,0826,12265,028.8,045.5,0.453,748.2,01.17,0.508
2016-10-08 01:36:00,2593E-3,5C000000,-0724,0826,12255,028.8,045.5,0.453,748.2,01.17,0.508
2016-10-08 01:37:00,2148E-3,5C000000,-0724,0826,12183,028.8,045.5,0.454,748.2,01.17,0.508
2016-10-08 01:38:00,1771E-3,5C000000,-0724,0827,12288,028.8,045.5,0.453,748.1,01.17,0.508
2016-10-08 01:39:00,1930E-3,5C000000,-0724,0826,12257,028.8,045.5,0.453,748.1,01.17,0.508
2016-10-08 01:40:00,1847E-3,5C000000,-0724,0826,12212,028.8,045.5,0.453,748.2,01.17,0.508
2016-10-08 01:41:00,1908E-3,5C000000,-0724,0826,12128,028.8,045.5,0.453,748.2,01.17,0.508
2016-10-08 01:42:00,2021E-3,5C000000,-0724,0826,12231,028.8,045.5,0.454,748.2,01.17,0.508
2016-10-08 01:43:00,2058E-3,5C000000,-0724,0827,12252,028.8,045.5,0.453,748.2,01.17,0.508
2016-10-08 01:44:00,2150E-3,5C000000,-0724,0827,12284,028.8,045.5,0.453,748.2,01.17,0.508
2016-10-08 01:45:00,2676E-3,5C000000,-0724,0826,12194,028.8,045.5,0.453,748.2,01.17,0.508
2016-10-08 01:46:00,2858E-3,5C000000,-0724,0827,12154,028.8,045.5,0.453,748.1,01.17,0.508
2016-10-08 01:47:00,2273E-3,5C000000,-0724,0827,12323,028.8,045.5,0.454,748.2,01.17,0.508
2016-10-08 01:48:00,1937E-3,5C000000,-0724,0826,12269,028.8,045.5,0.453,748.1,01.17,0.508
2016-10-08 01:49:00,1683E-3,5C000000,-0724,0826,12014,028.8,045.5,0.454,748.1,01.17,0.508
2016-10-08 01:50:00,1858E-3,5C000000,-0724,0826,12191,028.8,045.5,0.453,748.1,01.17,0.508
2016-10-08 01:51:00,1727E-3,5C000000,-0724,0826,12265,028.8,045.5,0.453,748.1,01.17,0.508
2016-10-08 01:52:00,1676E-3,5C000000,-0724,0827,11950,028.8,045.5,0.453,748.1,01.17,0.508
2016-10-08 01:53:00,1687E-3,5C000000,-0724,0827,12179,028.7,045.5,0.453,748.1,01.17,0.508
2016-10-08 01:54:00,1627E-3,5C000000,-0724,0827,12166,028.8,045.5,0.454,748.1,01.17,0.508
2016-10-08 01:55:00,1829E-3,5C000000,-0724,0827,12152,028.8,045.5,0.453,748.1,01.17,0.508
2016-10-08 01:56:00,1813E-3,5C000000,-0724,0827,12294,028.8,045.5,0.454,748.1,01.17,0.508
2016-10-08 01:57:00,1687E-3,5C000000,-0724,0826,12201,028.7,045.5,0.453,748.0,01.17,0.508
2016-10-08 01:58:00,1546E-3,5C000000,-0724,0826,12111,028.7,045.5,0.453,748.0,01.17,0.508
2016-10-08 01:59:00,1777E-3,5C000000,-0724,0827,12175,028.8,045.5,0.453,748.1,01.17,0.508
2016-10-08 02:00:00,1744E-3,5C000000,-0724,0826,12264,028.8,045.5,0.453,748.0,01.17,0.508
2016-10-08 02:01:00,1800E-3,5C000000,-0724,0827,12222,028.7,045.5,0.453,748.0,01.17,0.508
2016-10-08 02:02:00,1842E-3,5C000000,-0724,0826,12246,028.7,045.5,0.454,748.0,01.17,0.508
2016-10-08 02:03:00,1677E-3,5C000000,-0724,0827,12184,028.7,045.5,0.453,748.0,01.17,0.508
2016-10-08 02:04:00,1835E-3,5C000000,-0724,0827,12269,028.8,045.5,0.454,748.0,01.17,0.508
2016-10-08 02:05:00,1932E-3,5C000000,-0724,0826,12224,028.8,045.5,0.453,748.0,01.17,0.508
2016-10-08 02:06:00,2336E-3,5C000000,-0724,0826,12387,028.7,045.5,0.453,748.0,01.17,0.508
2016-10-08 02:07:00,2678E-3,5C000000,-0724,0825,12253,028.7,045.5,0.453,748.0,01.17,0.508
2016-10-08 02:08:00,2285E-3,5C000000,-0724,0826,12197,028.8,045.5,0.453,748.0,01.17,0.508
2016-10-08 02:09:00,2036E-3,5C000000,-0724,0826,12314,028.7,045.5,0.453,748.0,01.17,0.508
2016-10-08 02:10:00,2249E-3,5C000000,-0724,0826,12211,028.8,045.5,0.453,748.0,01.17,0.508
2016-10-08 02:11:00,2867E-3,5C000000,-0724,0826,12191,028.7,045.5,0.454,748.0,01.17,0.508
2016-10-08 02:12:00,2891E-3,5C000000,-0724,0826,12363,028.7,045.5,0.453,748.0,01.17,0.508
2016-10-08 02:13:00,2716E-3,5C000000,-0724,0826,12177,028.7,045.5,0.454,748.1,01.17,0.508
2016-10-08 02:14:00,3052E-3,5C000000,-0724,0825,12211,028.8,045.5,0.453,748.0,01.17,0.508
2016-10-08 02:15:00,3264E-3,5C000000,-0724,0826,12222,028.7,045.5,0.453,748.1,01.17,0.508
2016-10-08 02:16:00,3582E-3,5C000000,-0724,0825,12090,028.7,045.5,0.454,748.1,01.17,0.508
2016-10-08 02:17:00,3328E-3,5C000000,-0724,0826,12465,028.7,045.5,0.453,748.1,01.17,0.508
2016-10-08 02:18:00,2659E-3,5C000000,-0724,0826,12196,028.7,045.5,0.454,748.1,01.17,0.508
2016-10-08 02:19:00,2530E-3,5C000000,-0724,0826,12105,028.7,045.5,0.453,748.1,01.17,0.508
2016-10-08 02:20:00,2253E-3,5C000000,-0724,0827,11177,028.7,045.5,0.454,748.1,01.17,0.508
2016-10-08 02:21:00,1880E-3,5C000000,-0724,0826,12234,028.7,045.5,0.453,748.1,01.17,0.508
2016-10-08 02:22:00,1939E-3,5C000000,-0724,0827,12171,028.7,045.5,0.453,748.1,01.17,0.508
2016-10-08 02:23:00,1947E-3,5C000000,-0724,0826,12169,028.7,045.5,0.454,748.1,01.17,0.508
2016-10-08 02:24:00,1688E-3,5C000000,-0724,0825,12352,028.7,045.5,0.453,748.0,01.17,0.508
2016-10-08 02:25:00,1597E-3,5C000000,-0724,0826,12269,028.7,045.5,0.454,748.1,01.17,0.508
2016-10-08 02:26:00,1722E-3,5C000000,-0724,0826,12143,028.7,045.5,0.453,748.0,01.17,0.508
2016-10-08 02:27:00,1676E-3,5C000000,-0724,0826,12185,028.7,045.5,0.454,748.1,01.17,0.508
2016-10-08 02:28:00,1688E-3,5C000000,-0724,0826,12063,028.7,045.5,0.453,748.1,01.17,0.508
2016-10-08 02:29:00,1600E-3,5C000000,-0724,0826,12206,028.7,045.5,0.453,748.0,01.17,0.508
2016-10-08 02:30:00,1714E-3,5C000000,-0724,0826,12189,028.7,045.5,0.454,748.0,01.17,0.508
2016-10-08 02:31:00,1671E-3,5C000000,-0724,0826,12096,028.7,045.5,0.453,748.1,01.17,0.508
2016-10-08 02:32:00,1653E-3,5C000000,-0724,0826,12235,028.7,045.5,0.454,748.1,01.17,0.508
2016-10-08 02:33:00,1669E-3,5C000000,-0724,0826,12201,028.7,045.5,0.453,748.0,01.17,0.508
2016-10-08 02:34:00,1724E-3,5C000000,-0724,0826,12231,028.7,045.5,0.453,748.0,01.17,0.508
2016-10-08 02:35:00,1618E-3,5C000000,-0724,0826,12226,028.7,045.5,0.453,748.0,01.17,0.508
2016-10-08 02:36:00,1713E-3,5C000000,-0724,0826,11969,028.7,045.5,0.453,748.0,01.17,0.508
2016-10-08 02:37:00,1673E-3,5C000000,-0724,0826,12177,028.7,045.5,0.453,748.0,01.17,0.508
2016-10-08 02:38:00,1670E-3,5C000000,-0724,0826,12356,028.7,045.5,0.453,747.9,01.17,0.508
2016-10-08 02:39:00,1747E-3,5C000000,-0724,0826,12249,028.7,045.5,0.453,747.9,01.17,0.508
2016-10-08 02:40:00,1533E-3,5C000000,-0724,0825,12247,028.7,045.5,0.453,747.8,01.17,0.508
2016-10-08 02:41:00,1657E-3,5C000000,-0724,0827,12224,028.7,045.5,0.454,747.9,01.17,0.508
2016-10-08 02:42:00,1670E-3,5C000000,-0724,0827,12227,028.7,045.5,0.453,747.8,01.17,0.508
2016-10-08 02:43:00,1694E-3,5C000000,-0724,0827,12311,028.7,045.5,0.454,747.9,01.17,0.508
2016-10-08 02:44:00,1639E-3,5C000000,-0724,0826,12107,028.7,045.5,0.453,747.9,01.17,0.508
2016-10-08 02:45:00,1653E-3,5C000000,-0724,0827,12287,028.7,045.5,0.453,747.9,01.17,0.508
2016-10-08 02:46:00,1535E-3,5C000000,-0724,0827,12205,028.7,045.5,0.453,747.9,01.17,0.508
2016-10-08 02:47:00,1671E-3,5C000000,-0724,0826,12257,028.7,045.5,0.453,747.9,01.17,0.508
2016-10-08 02:48:00,1732E-3,5C000000,-0724,0826,12231,028.7,045.5,0.453,747.8,01.17,0.508
2016-10-08 02:49:00,1609E-3,5C000000,-0724,0827,12223,028.6,045.5,0.453,747.8,01.17,0.508
2016-10-08 02:50:00,1579E-3,5C000000,-0724,0826,12216,028.7,045.5,0.454,747.8,01.17,0.508
2016-10-08 02:51:00,1673E-3,5C000000,-0724,0826,12203,028.7,045.5,0.453,747.8,01.17,0.508
2016-10-08 02:52:00,1622E-3,5C000000,-0724,0826,12300,028.7,045.5,0.454,747.9,01.17,0.508
2016-10-08 02:53:00,1513E-3,5C000000,-0724,0827,12185,028.7,045.5,0.453,747.9,01.17,0.508
2016-10-08 02:54:00,1856E-3,5C000000,-0724,0826,12243,028.6,045.5,0.453,747.9,01.17,0.508
2016-10-08 02:55:00,1616E-3,5C000000,-0724,0826,12236,028.6,045.5,0.454,748.0,01.17,0.508
2016-10-08 02:56:00,1605E-3,5C000000,-0724,0826,12274,028.7,045.5,0.453,748.0,01.17,0.508
2016-10-08 02:57:00,1536E-3,5C000000,-0724,0826,12233,028.7,045.5,0.454,748.0,01.17,0.508
2016-10-08 02:58:00,1572E-3,5C000000,-0724,0826,12318,028.6,045.5,0.453,748.0,01.17,0.508
2016-10-08 02:59:00,1774E-3,5C000000,-0724,0825,12210,028.7,045.5,0.454,748.0,01.17,0.508
2016-10-08 03:00:00,1648E-3,5C000000,-0724,0826,12294,028.6,045.5,0.453,748.0,01.17,0.508
2016-10-08 03:01:00,1580E-3,5C000000,-0724,0826,12283,028.6,045.5,0.454,748.0,01.17,0.508
2016-10-08 03:02:00,1592E-3,5C000000,-0724,0826,12205,028.6,045.5,0.453,748.1,01.17,0.508
2016-10-08 03:03:00,1660E-3,5C000000,-0724,0826,12168,028.6,045.5,0.453,748.1,01.17,0.508
2016-10-08 03:04:00,1689E-3,5C000000,-0724,0826,12164,028.7,045.5,0.454,748.1,01.17,0.508
2016-10-08 03:05:00,1640E-3,5C000000,-0724,0825,12186,028.6,045.5,0.453,748.1,01.17,0.508
2016-10-08 03:06:00,1601E-3,5C000000,-0724,0826,12209,028.6,045.5,0.454,748.1,01.17,0.508
2016-10-08 03:07:00,1689E-3,5C000000,-0724,0827,12202,028.6,045.5,0.453,748.1,01.17,0.508
2016-10-08 03:08:00,1591E-3,5C000000,-0724,0827,12282,028.6,045.5,0.454,748.1,01.17,0.508
2016-10-08 03:09:00,1659E-3,5C000000,-0724,0826,12234,028.6,045.5,0.453,748.1,01.17,0.508
2016-10-08 03:10:00,1616E-3,5C000000,-0724,0826,12127,028.6,045.5,0.454,748.1,01.17,0.508
2016-10-08 03:11:00,1563E-3,5C000000,-0724,0826,12249,028.6,045.5,0.454,748.1,01.17,0.508
2016-10-08 03:12:00,1641E-3,5C000000,-0724,0826,12312,028.6,045.5,0.453,748.1,01.17,0.508
2016-10-08 03:13:00,1578E-3,5C000000,-0724,0826,12231,028.6,045.5,0.454,748.1,01.17,0.508
2016-10-08 03:14:00,1668E-3,5C000000,-0724,0826,12307,028.6,045.5,0.453,748.1,01.17,0.508
2016-10-08 03:15:00,1608E-3,5C000000,-0724,0827,12401,028.6,045.5,0.454,748.1,01.17,0.508
2016-10-08 03:16:00,1611E-3,5C000000,-0724,0826,12162,028.6,045.5,0.453,748.1,01.17,0.508
2016-10-08 03:17:00,1603E-3,5C000000,-0724,0827,12281,028.6,045.5,0.454,748.1,01.17,0.508
2016-10-08 03:18:00,1706E-3,5C000000,-0724,0826,12133,028.6,045.5,0.454,748.1,01.17,0.508
2016-10-08 03:19:00,1610E-3,5C000000,-0724,0826,12036,028.6,045.5,0.453,748.1,01.17,0.508
2016-10-08 03:20:00,1674E-3,5C000000,-0724,0826,12205,028.6,045.5,0.454,748.1,01.17,0.508
2016-10-08 03:21:00,1605E-3,5C000000,-0724,0825,12240,028.6,045.5,0.453,748.1,01.17,0.508
2016-10-08 03:22:00,1632E-3,5C000000,-0724,0826,12159,028.6,045.5,0.454,748.1,01.17,0.508
2016-10-08 03:23:00,1599E-3,5C000000,-0724,0826,12329,028.6,045.5,0.453,748.1,01.17,0.508
2016-10-08 03:24:00,1686E-3,5C000000,-0724,0827,12337,028.6,045.5,0.454,748.1,01.17,0.508
2016-10-08 03:25:00,1643E-3,5C000000,-0724,0826,12282,028.6,045.5,0.453,748.1,01.17,0.508
2016-10-08 03:26:00,1560E-3,5C000000,-0724,0826,12243,028.6,045.5,0.454,748.1,01.17,0.508
2016-10-08 03:27:00,1528E-3,5C000000,-0724,0827,12376,028.6,045.5,0.454,748.1,01.17,0.508
2016-10-08 03:28:00,1568E-3,5C000000,-0724,0825,12151,028.6,045.5,0.453,748.1,01.17,0.508
2016-10-08 03:29:00,1564E-3,5C000000,-0724,0825,12281,028.6,045.5,0.454,748.1,01.17,0.508
2016-10-08 03:30:00,1632E-3,5C000000,-0724,0826,12177,028.6,045.5,0.453,748.1,01.17,0.508
2016-10-08 03:31:00,1682E-3,5C000000,-0724,0826,12268,028.6,045.5,0.454,748.1,01.17,0.508
2016-10-08 03:32:00,1699E-3,5C000000,-0724,0827,12203,028.5,045.5,0.453,748.0,01.17,0.508
2016-10-08 03:33:00,1581E-3,5C000000,-0724,0826,12188,028.5,045.5,0.454,748.0,01.17,0.508
2016-10-08 03:34:00,1463E-3,5C000000,-0724,0825,12288,028.5,045.5,0.454,748.0,01.17,0.508
2016-10-08 03:35:00,1564E-3,5C000000,-0724,0826,12212,028.5,045.5,0.453,748.0,01.17,0.508
2016-10-08 03:36:00,1570E-3,5C000000,-0724,0826,12081,028.5,045.5,0.454,748.0,01.17,0.508
2016-10-08 03:37:00,1691E-3,5C000000,-0724,0826,12352,028.6,045.5,0.453,748.0,01.17,0.508
2016-10-08 03:38:00,1667E-3,5C000000,-0724,0826,12104,028.5,045.5,0.454,748.0,01.17,0.508
2016-10-08 03:39:00,1673E-3,5C000000,-0724,0826,12321,028.5,045.5,0.454,748.0,01.17,0.508
2016-10-08 03:40:00,1657E-3,5C000000,-0724,0826,12146,028.5,045.5,0.453,748.0,01.17,0.508
2016-10-08 03:41:00,1772E-3,5C000000,-0724,0826,12261,028.5,045.5,0.454,748.0,01.17,0.508
2016-10-08 03:42:00,1853E-3,5C000000,-0724,0826,12296,028.5,045.5,0.453,748.0,01.17,0.508
2016-10-08 03:43:00,1928E-3,5C000000,-0724,0826,12274,028.5,045.5,0.454,748.0,01.17,0.508
2016-10-08 03:44:00,2311E-3,5C000000,-0724,0826,12171,028.5,045.5,0.453,748.0,01.17,0.508
2016-10-08 03:45:00,2077E-3,5C000000,-0724,0825,12170,028.5,045.5,0.454,748.0,01.17,0.508
2016-10-08 03:46:00,2133E-3,5C000000,-0724,0827,12271,028.5,045.5,0.454,747.9,01.17,0.508
2016-10-08 03:47:00,2158E-3,5C000000,-0724,0826,12262,028.5,045.5,0.453,748.0,01.17,0.508
2016-10-08 03:48:00,2002E-3,5C000000,-0724,0826,12279,028.5,045.5,0.454,748.0,01.17,0.508
2016-10-08 03:49:00,1845E-3,5C000000,-0724,0825,12090,028.5,045.5,0.453,748.0,01.17,0.508
2016-10-08 03:50:00,2010E-3,5C000000,-0724,0826,12091,028.5,045.5,0.454,748.0,01.17,0.508
2016-10-08 03:51:00,2577E-3,5C000000,-0724,0825,12218,028.5,045.5,0.453,748.0,01.17,0.508
2016-10-08 03:52:00,2379E-3,5C000000,-0724,0826,12000,028.5,045.5,0.454,747.9,01.17,0.508
2016-10-08 03:53:00,2156E-3,5C000000,-0724,0826,12120,028.5,045.5,0.454,747.9,01.17,0.508
2016-10-08 03:54:00,2072E-3,5C000000,-0724,0826,12162,028.5,045.5,0.454,747.9,01.17,0.508
2016-10-08 03:55:00,2518E-3,5C000000,-0724,0827,12310,028.5,045.5,0.454,747.9,01.17,0.508
2016-10-08 03:56:00,2170E-3,5C000000,-0724,0826,12222,028.5,045.5,0.453,747.9,01.17,0.508
2016-10-08 03:57:00,2288E-3,5C000000,-0724,0826,12266,028.5,045.5,0.454,747.9,01.17,0.508
2016-10-08 03:58:00,2477E-3,5C000000,-0724,0826,12377,028.5,045.5,0.453,747.9,01.17,0.508
2016-10-08 03:59:00,2725E-3,5C000000,-0724,0826,12157,028.5,045.5,0.454,747.9,01.17,0.508
2016-10-08 04:00:00,2890E-3,5C000000,-0724,0826,12214,028.5,045.5,0.453,747.9,01.17,0.508
2016-10-08 04:01:00,2773E-3,5C000000,-0724,0827,12217,028.5,045.5,0.454,747.9,01.17,0.508
2016-10-08 04:02:00,2595E-3,5C000000,-0724,0826,12265,028.5,045.5,0.454,747.9,01.17,0.508
2016-10-08 04:03:00,2315E-3,5C000000,-0724,0827,12202,028.5,045.5,0.453,747.9,01.17,0.508
2016-10-08 04:04:00,2052E-3,5C000000,-0724,0827,12127,028.5,045.5,0.454,747.9,01.17,0.508
2016-10-08 04:05:00,2174E-3,5C000000,-0724,0827,12127,028.5,045.5,0.453,747.9,01.17,0.508
2016-10-08 04:06:00,2571E-3,5C000000,-0724,0827,12336,028.5,045.5,0.454,747.9,01.17,0.508
2016-10-08 04:07:00,2658E-3,5C000000,-0724,0826,12216,028.5,045.5,0.454,747.9,01.17,0.508
2016-10-08 04:08:00,2396E-3,5C000000,-0724,0826,12297,028.5,045.5,0.454,747.9,01.17,0.508
2016-10-08 04:09:00,1980E-3,5C000000,-0724,0827,12325,028.5,045.5,0.454,747.9,01.17,0.508
2016-10-08 04:10:00,2346E-3,5C000000,-0724,0825,12254,028.5,045.5,0.453,747.9,01.17,0.508
2016-10-08 04:11:00,2436E-3,5C000000,-0724,0826,12297,028.5,045.5,0.454,747.9,01.17,0.508
2016-10-08 04:12:00,2272E-3,5C000000,-0724,0826,12234,028.5,045.5,0.453,747.9,01.17,0.508
2016-10-08 04:13:00,1909E-3,5C000000,-0724,0827,12310,028.5,045.5,0.454,747.9,01.17,0.508
2016-10-08 04:14:00,1877E-3,5C000000,-0724,0826,12187,028.5,045.5,0.454,747.9,01.17,0.508
2016-10-08 04:15:00,1914E-3,5C000000,-0724,0826,12305,028.5,045.5,0.454,747.9,01.17,0.508
2016-10-08 04:16:00,1962E-3,5C000000,-0724,0826,12167,028.5,045.5,0.454,747.9,01.17,0.508
2016-10-08 04:17:00,1894E-3,5C000000,-0724,0827,12337,028.5,045.5,0.453,747.9,01.17,0.508
2016-10-08 04:18:00,1817E-3,5C000000,-0724,0827,12413,028.5,045.5,0.454,747.8,01.17,0.508
2016-10-08 04:19:00,1895E-3,5C000000,-0724,0826,12351,028.5,045.5,0.453,747.8,01.17,0.508
2016-10-08 04:20:00,1898E-3,5C000000,-0724,0826,12307,028.5,045.5,0.454,747.8,01.17,0.508